DH9NFM-12 Weather Reports


time (UTC)temp
C
wind
direction
speed
KPH
gust
KPH
rain 1hr
cm
rain 24hr
cm
rain mn
cm
humidity
%
barometer
mb
20260507075710 8 0 3.2 0.0 0.13 0.00 0.00 10 1009.4
20260507074645 8 0 1.6 0.0 0.10 0.00 0.00 10 1009.3
20260507073620 8 90 4.8 0.0 0.10 0.00 0.00 10 1009.2
20260507071531 8 0 1.6 0.0 0.03 0.00 0.00 10 1009.1
20260507070506 8 90 1.6 0.0 0.13 0.00 0.00 10 1008.9
20260507065441 8 180 1.6 0.0 0.13 0.00 0.00 10 1008.9
20260507064416 8 135 4.8 0.0 0.10 0.00 0.00 10 1008.8
20260507063352 8 90 3.2 0.0 0.08 0.00 0.00 10 1008.7
20260507060237 7 0 3.2 0.0 0.13 0.00 0.00 10 1008.5
20260507054147 7 0 6.4 0.0 0.08 0.00 0.00 10 1008.3
20260507053123 7 180 8.0 0.0 0.05 0.00 0.00 10 1008.1
20260507052058 7 180 1.6 0.0 0.03 0.00 0.00 10 1008.1
20260507051033 7 90 1.6 0.0 0.00 0.00 0.00 10 1008.1
20260507050008 7 180 4.8 0.0 0.00 0.00 0.00 10 1008.0
20260507042854 8 0 3.2 0.0 0.00 0.00 0.00 10 1007.7
20260507040804 8 0 3.2 0.0 0.00 0.00 0.00 10 1007.4
20260507035739 8 90 8.0 0.0 0.03 0.00 0.00 10 1007.4
20260507034715 8 180 1.6 0.0 0.00 0.00 0.00 10 1007.4
20260507033650 8 0 1.6 0.0 0.00 0.00 0.00 10 1007.3
20260507030535 8 0 1.6 0.0 0.00 0.00 0.00 10 1007.2
20260507024446 8 90 1.6 0.0 0.03 0.00 0.00 10 1007.2
20260507023421 8 90 1.6 0.0 0.03 0.00 0.00 10 1007.3
20260507021331 8 180 1.6 0.0 0.03 0.00 0.00 10 1007.2
20260507020307 8 90 1.6 0.0 0.03 0.00 0.00 10 1007.2
20260507015242 8 90 3.2 0.0 0.28 0.00 0.00 10 1007.1
20260507014217 9 90 1.6 0.0 0.25 0.00 0.00 10 1007.1
20260507012127 9 0 1.6 0.0 0.20 0.00 0.00 10 1007.0
20260507010038 9 0 1.6 0.0 0.05 0.00 0.00 10 1007.0
20260507005013 9 90 1.6 0.0 0.25 0.00 0.00 10 1007.0
20260507003948 9 90 1.6 0.0 0.20 0.00 0.00 10 1006.9
20260507002923 9 0 1.6 0.0 0.08 0.00 0.00 10 1006.9
20260507001858 10 90 1.6 0.0 0.03 0.00 0.00 10 1006.8
20260507000834 10 90 3.2 0.0 0.00 0.00 0.00 10 1006.8
20260506233719 10 0 1.6 0.0 0.08 0.00 0.00 10 1006.9
20260506231630 10 45 1.6 0.0 0.03 0.00 0.00 10 1006.9
20260506230605 10 0 1.6 0.0 0.00 0.00 0.00 10 1006.8
20260506224515 10 0 1.6 0.0 0.03 0.00 0.00 10 1006.8
20260506223450 10 90 4.8 0.0 0.03 0.00 0.00 10 1006.8
20260506221401 10 0 1.6 0.0 0.00 0.00 0.00 10 1006.8
20260506220336 10 270 1.6 0.0 0.00 0.00 0.00 10 1006.8
20260506214246 10 0 3.2 0.0 0.00 0.00 0.00 10 1006.9
20260506212157 10 0 4.8 0.0 0.00 0.00 0.00 10 1006.9
20260506211132 10 180 3.2 0.0 0.00 0.00 0.00 10 1006.7
20260506210107 11 180 3.2 0.0 0.00 0.00 0.00 10 1006.6
20260506202953 11 45 0.0 0.0 0.00 0.00 0.00 10 1006.5
20260506201928 11 0 0.0 0.0 0.00 0.00 0.00 10 1006.5
20260506200903 11 0 0.0 0.0 0.00 0.00 0.00 10 1006.5
20260506195838 11 0 0.0 0.0 0.00 0.00 0.00 10 1006.5
20260506194813 11 0 0.0 0.0 0.00 0.00 0.00 10 1006.4
20260506193749 11 0 0.0 0.0 0.00 0.00 0.00 10 1006.2
20260506192724 11 0 0.0 0.0 0.00 0.00 0.00 10 1005.9
20260506190634 11 45 0.0 0.0 0.00 0.00 0.00 10 1005.8
20260506184545 12 0 4.8 0.0 0.00 0.00 0.00 10 1005.5
20260506183520 12 180 3.2 0.0 0.00 0.00 0.00 10 1005.4
20260506182455 12 180 9.7 0.0 0.00 0.00 0.00 10 1005.4
20260506180405 13 90 0.0 0.0 0.00 0.00 0.00 10 1005.2
20260506175340 13 0 1.6 0.0 0.00 0.00 0.00 10 1005.2
20260506174316 13 180 3.2 0.0 0.00 0.00 0.00 10 1005.1
20260506173251 13 180 1.6 0.0 0.00 0.00 0.00 10 1005.0
20260506172226 13 180 4.8 0.0 0.00 0.00 0.00 10 1005.0
20260506171201 13 180 1.6 0.0 0.00 0.00 0.00 10 1005.0
20260506170136 13 180 1.6 0.0 0.00 0.00 0.00 10 1004.8
20260506165112 14 0 0.0 0.0 0.00 0.00 0.00 10 1004.8
20260506163022 15 0.0 0.0 0.00 0.00 0.00 10 1004.9
20260506161957 15 0 0.0 0.0 0.00 0.00 0.00 10 1005.1
20260506160932 15 90 0.0 0.0 0.00 0.00 0.00 10 1005.1
20260506151729 16 0 0.0 0.0 0.00 0.00 0.00 91 1004.9
20260506145639 16 0 6.4 0.0 0.00 0.00 0.00 94 1005.1
20260506144615 16 180 4.8 0.0 0.00 0.00 0.00 92 1005.1
20260506143550 15 180 3.2 0.0 0.00 0.00 0.00 95 1005.2
20260506142526 15 180 6.4 0.0 0.00 0.00 0.00 98 1005.3
20260506140436 15 90 4.8 0.0 0.00 0.00 0.00 10 1005.3
20260506135411 15 180 6.4 0.0 0.00 0.00 0.00 95 1005.3
20260506134347 15 180 4.8 0.0 0.00 0.00 0.00 95 1005.3
20260506133322 15 180 1.6 0.0 0.00 0.00 0.00 94 1005.4
20260506131233 16 0 17.7 0.0 0.00 0.00 0.00 98 1005.5
20260506130208 16 180 11.3 0.0 0.00 0.00 0.00 10 1005.6
20260506125143 15 180 3.2 0.0 0.00 0.00 0.00 10 1005.6
20260506124119 15 180 1.6 0.0 0.00 0.00 0.00 10 1005.7
20260506123054 15 90 4.8 0.0 0.00 0.00 0.00 10 1005.7
20260506122029 16 180 4.8 0.0 0.00 0.00 0.00 10 1005.7
20260506121004 16 180 1.6 0.0 0.00 0.00 0.00 10 1005.6
20260506115939 16 270 1.6 0.0 0.00 0.00 0.00 10 1005.7
20260506114915 15 0 3.2 0.0 0.00 0.00 0.00 10 1005.8
20260506113850 13 90 9.7 0.0 0.00 0.00 0.00 10 1005.9
20260506112825 14 180 1.6 0.0 0.00 0.00 0.00 10 1005.9
20260506111800 15 90 1.6 0.0 0.00 0.00 0.00 10 1005.9
20260506110735 13 0 6.4 0.0 0.00 0.00 0.00 10 1005.9
20260506105710 13 180 3.2 0.0 0.00 0.00 0.00 10 1005.9
20260506104646 13 90 4.8 0.0 0.00 0.00 0.00 10 1006.0
20260506103621 13 180 8.0 0.0 0.00 0.00 0.00 10 1006.0
20260506102556 13 180 1.6 0.0 0.00 0.00 0.00 10 1005.9
20260506101531 13 90 1.6 0.0 0.00 0.00 0.00 10 1006.0
20260506095442 13 0 3.2 0.0 0.00 0.00 0.00 10 1006.0
20260506094417 12 90 1.6 0.0 0.00 0.00 0.00 10 1006.0
20260506093352 13 0 11.3 0.0 0.00 0.00 0.00 10 1006.0
20260506092327 14 180 11.3 0.0 0.00 0.00 0.00 10 1005.9
20260506091302 13 180 1.6 0.0 0.00 0.00 0.00 10 1006.0
20260506090238 12 12.9 0.0 0.00 0.00 0.00 10 1006.0
20260506084148 12 0 1.6 0.0 0.00 0.00 0.00 10 1005.8